RYR85QU EYVI-EGSS

Flight info

Callsign RYR85QU
Flight time 2h 31m
Altitude 38000
Route UPASI DCT TUNGA DCT SUWGI DCT GRUDA L29 ALUKA DCT POVEL DCT NIGUG DCT ODVIL DCT NOGRO M40 RINIS
Aircraft B38M/M-SADE3FGIJ1LRWY/SB1

Departure

Time 2026-05-04 10:27
Airport Vilnius International Airport (EYVI)

Arrival

Time 2026-05-04 12:58
Airport London Stansted Airport (EGSS)
Time Latitude Longitude Altitude Speed Heading
2026-05-04 10:04 54.64242 25.28281 640 ft 0 kts 359°
2026-05-04 10:16 54.64227 25.28281 641 ft 3 kts
2026-05-04 10:16 54.64210 25.28281 647 ft 3 kts
2026-05-04 10:16 54.64190 25.28276 642 ft 3 kts 21°
2026-05-04 10:17 54.64176 25.28260 642 ft 3 kts 64°
2026-05-04 10:17 54.64174 25.28247 644 ft 1 kts 78°
2026-05-04 10:25 54.64223 25.28828 653 ft 23 kts 22°
2026-05-04 10:25 54.64386 25.28945 658 ft 25 kts 21°
2026-05-04 10:25 54.64500 25.29037 659 ft 9 kts 51°
2026-05-04 10:25 54.64501 25.29108 658 ft 6 kts 113°
2026-05-04 10:26 54.64480 25.29182 659 ft 7 kts 115°
2026-05-04 10:26 54.64457 25.29267 659 ft 8 kts 123°
2026-05-04 10:26 54.64437 25.29281 659 ft 1 kts 191°
2026-05-04 10:26 54.64413 25.29267 659 ft 21 kts 199°
2026-05-04 10:27 54.64023 25.28998 647 ft 98 kts 202°
2026-05-04 10:27 54.63177 25.28408 635 ft 159 kts 203°
2026-05-04 10:27 54.62094 25.27698 1244 ft 180 kts 201°
2026-05-04 10:27 54.60890 25.26905 2155 ft 184 kts 205°
2026-05-04 10:28 54.59714 25.26061 3145 ft 189 kts 206°
2026-05-04 10:28 54.58436 25.25148 3836 ft 204 kts 205°
2026-05-04 10:28 54.57042 25.24176 4280 ft 231 kts 205°
2026-05-04 10:28 54.55498 25.23109 4993 ft 241 kts 204°
2026-05-04 10:29 54.53961 25.22066 6092 ft 236 kts 205°
2026-05-04 10:29 54.52430 25.20997 6947 ft 240 kts 208°
2026-05-04 10:29 54.51093 25.19215 7522 ft 251 kts 234°
2026-05-04 10:29 54.50183 25.16561 8002 ft 267 kts 248°
2026-05-04 10:30 54.49600 25.13547 8943 ft 264 kts 253°
2026-05-04 10:30 54.49053 25.10518 9883 ft 266 kts 253°
2026-05-04 10:30 54.48496 25.07436 10470 ft 278 kts 253°
2026-05-04 10:30 54.47901 25.04151 10910 ft 295 kts 254°
2026-05-04 10:31 54.47276 25.00712 11410 ft 308 kts 254°
2026-05-04 10:31 54.46635 24.97181 12228 ft 308 kts 254°
2026-05-04 10:32 54.42667 24.75415 16488 ft 330 kts 254°
2026-05-04 10:33 54.41975 24.71639 17123 ft 334 kts 253°
2026-05-04 10:33 54.41270 24.67808 17754 ft 338 kts 253°
2026-05-04 10:33 54.40557 24.63937 18345 ft 342 kts 253°
2026-05-04 10:33 54.39834 24.60021 18882 ft 346 kts 253°
2026-05-04 10:34 54.39103 24.56070 19415 ft 349 kts 253°
2026-05-04 10:34 54.38363 24.52079 19949 ft 352 kts 253°
2026-05-04 10:34 54.37616 24.48060 20492 ft 355 kts 253°
2026-05-04 10:34 54.36861 24.44002 21001 ft 359 kts 253°
2026-05-04 10:35 54.36097 24.39909 21502 ft 362 kts 253°
2026-05-04 10:35 54.35326 24.35784 22037 ft 365 kts 253°
2026-05-04 10:35 54.34545 24.31619 22542 ft 369 kts 253°
2026-05-04 10:35 54.33756 24.27417 23067 ft 372 kts 253°
2026-05-04 10:36 54.32959 24.23184 23543 ft 376 kts 253°
2026-05-04 10:36 54.32151 24.18899 23968 ft 379 kts 253°
2026-05-04 10:36 54.31337 24.14594 24394 ft 382 kts 253°
2026-05-04 10:36 54.30516 24.10265 24824 ft 384 kts 253°
2026-05-04 10:37 54.29686 24.05897 25253 ft 387 kts 253°
2026-05-04 10:37 54.28860 24.01557 25668 ft 390 kts 253°
2026-05-04 10:37 54.28013 23.97121 26086 ft 393 kts 253°
2026-05-04 10:37 54.27162 23.92670 26503 ft 395 kts 253°
2026-05-04 10:39 54.21884 23.65307 28800 ft 412 kts 253°
2026-05-04 10:39 54.20980 23.60661 29154 ft 415 kts 253°
2026-05-04 10:39 54.20066 23.55973 29520 ft 417 kts 253°
2026-05-04 10:40 54.19145 23.51258 29866 ft 420 kts 253°
2026-05-04 10:40 54.18216 23.46517 30177 ft 422 kts 252°
2026-05-04 10:40 54.17278 23.41745 30474 ft 424 kts 253°
2026-05-04 10:40 54.16338 23.36969 30785 ft 426 kts 252°
2026-05-04 10:41 54.15390 23.32168 31084 ft 428 kts 252°
2026-05-04 10:41 54.14437 23.27350 31386 ft 429 kts 252°
2026-05-04 10:41 54.13479 23.22522 31674 ft 431 kts 252°
2026-05-04 10:41 54.12520 23.17696 31965 ft 433 kts 252°
2026-05-04 10:42 54.11542 23.12792 32264 ft 435 kts 252°
2026-05-04 10:42 54.10898 23.09565 32445 ft 436 kts 252°
2026-05-04 10:42 54.09586 23.03014 32876 ft 437 kts 252°
2026-05-04 10:42 54.08605 22.98129 33266 ft 435 kts 252°
2026-05-04 10:43 54.07954 22.94898 33544 ft 435 kts 252°
2026-05-04 10:44 54.03500 22.60048 35761 ft 428 kts 259°
2026-05-04 10:45 54.02916 22.55075 36046 ft 428 kts 259°
2026-05-04 10:45 54.02332 22.50115 36317 ft 428 kts 259°
2026-05-04 10:45 54.01747 22.45175 36579 ft 427 kts 259°
2026-05-04 10:45 54.01160 22.40233 36834 ft 427 kts 259°
2026-05-04 10:46 54.00574 22.35313 37098 ft 426 kts 259°
2026-05-04 10:46 53.99981 22.30351 37349 ft 425 kts 259°
2026-05-04 10:46 53.99396 22.25484 37563 ft 425 kts 259°
2026-05-04 10:46 53.98798 22.20513 37785 ft 425 kts 259°
2026-05-04 10:47 53.98201 22.15580 37912 ft 425 kts 259°
2026-05-04 10:47 53.97009 22.05779 37903 ft 424 kts 259°
2026-05-04 10:49 53.92170 21.66695 37916 ft 425 kts 258°
2026-05-04 10:50 53.90923 21.56801 37915 ft 432 kts 258°
2026-05-04 10:52 53.85794 21.16826 37915 ft 434 kts 258°
2026-05-04 10:52 53.84491 21.06836 37918 ft 434 kts 258°
2026-05-04 10:54 53.79190 20.66943 37932 ft 434 kts 258°
2026-05-04 10:56 53.73750 20.27089 37928 ft 435 kts 258°
2026-05-04 10:57 53.72369 20.17138 37927 ft 435 kts 258°
2026-05-04 10:57 53.70978 20.07185 37932 ft 435 kts 258°
2026-05-04 10:58 53.69580 19.97248 37927 ft 436 kts 258°
2026-05-04 10:58 53.68171 19.87294 37929 ft 436 kts 258°
2026-05-04 10:59 53.66753 19.77343 37917 ft 437 kts 257°
2026-05-04 10:59 53.65327 19.67398 37936 ft 437 kts 257°
2026-05-04 11:00 53.63892 19.57458 37925 ft 437 kts 257°
2026-05-04 11:02 53.58057 19.17669 37921 ft 438 kts 257°
2026-05-04 11:05 53.47964 18.42905 37928 ft 437 kts 259°
2026-05-04 11:06 53.46740 18.32900 37935 ft 437 kts 259°
2026-05-04 11:06 53.45511 18.22923 37928 ft 437 kts 259°
2026-05-04 11:10 53.36708 17.53524 37943 ft 432 kts 259°
2026-05-04 11:12 53.31542 17.14332 37944 ft 430 kts 258°
2026-05-04 11:12 53.30235 17.04574 37949 ft 430 kts 258°
2026-05-04 11:13 53.28922 16.94824 37950 ft 429 kts 258°
2026-05-04 11:13 53.27603 16.85116 37953 ft 429 kts 258°
2026-05-04 11:14 53.26277 16.75403 37946 ft 428 kts 258°
2026-05-04 11:16 53.20904 16.36757 37954 ft 427 kts 257°
2026-05-04 11:16 53.19541 16.27119 37947 ft 427 kts 257°
2026-05-04 11:17 53.18171 16.17495 37950 ft 426 kts 257°
2026-05-04 11:19 53.12627 15.79121 37959 ft 426 kts 257°
2026-05-04 11:19 53.11225 15.69553 37963 ft 425 kts 256°
2026-05-04 11:20 53.09817 15.59988 37966 ft 425 kts 256°
2026-05-04 11:20 53.08399 15.50427 37963 ft 425 kts 256°
2026-05-04 11:22 53.02771 15.13008 37965 ft 416 kts 255°
2026-05-04 11:23 53.01350 15.03703 37963 ft 416 kts 255°
2026-05-04 11:25 52.96300 14.71040 37966 ft 418 kts 254°
2026-05-04 11:25 52.94838 14.61705 37966 ft 418 kts 254°
2026-05-04 11:27 52.87643 14.19981 37967 ft 419 kts 250°
2026-05-04 11:28 52.86086 14.12395 37968 ft 419 kts 250°
2026-05-04 11:28 52.84210 14.03261 37966 ft 420 kts 250°
2026-05-04 11:29 52.82327 13.94133 37961 ft 420 kts 250°
2026-05-04 11:29 52.80433 13.84989 37966 ft 420 kts 250°
2026-05-04 11:33 52.66990 13.21267 37964 ft 420 kts 250°
2026-05-04 11:33 52.65043 13.12204 37962 ft 420 kts 250°
2026-05-04 11:34 52.63091 13.03159 37960 ft 419 kts 250°
2026-05-04 11:34 52.61132 12.94114 37960 ft 419 kts 250°
2026-05-04 11:35 52.59176 12.85130 37956 ft 419 kts 250°
2026-05-04 11:35 52.57208 12.76126 37963 ft 419 kts 250°
2026-05-04 11:36 52.55229 12.67112 37961 ft 418 kts 250°
2026-05-04 11:36 52.53253 12.58151 37960 ft 418 kts 250°
2026-05-04 11:37 52.51261 12.49158 37965 ft 418 kts 250°
2026-05-04 11:37 52.49270 12.40207 37965 ft 418 kts 250°
2026-05-04 11:38 52.47272 12.31260 37969 ft 417 kts 250°
2026-05-04 11:38 52.45267 12.22327 37965 ft 417 kts 250°
2026-05-04 11:39 52.43259 12.13415 37968 ft 417 kts 250°
2026-05-04 11:41 52.36188 11.82328 37975 ft 416 kts 249°
2026-05-04 11:41 52.34159 11.73490 37978 ft 415 kts 249°
2026-05-04 11:42 52.32126 11.64671 37976 ft 415 kts 249°
2026-05-04 11:42 52.30085 11.55853 37974 ft 415 kts 249°
2026-05-04 11:43 52.28038 11.47050 37974 ft 414 kts 249°
2026-05-04 11:43 52.25984 11.38253 37981 ft 414 kts 249°
2026-05-04 11:44 52.23925 11.29468 37981 ft 414 kts 249°
2026-05-04 11:44 52.21866 11.20718 37980 ft 413 kts 249°
2026-05-04 11:45 52.19804 11.11984 37978 ft 413 kts 249°
2026-05-04 11:45 52.17734 11.03249 37987 ft 413 kts 249°
2026-05-04 11:46 52.15660 10.94527 37986 ft 412 kts 249°
2026-05-04 11:46 52.13597 10.85826 37989 ft 412 kts 251°
2026-05-04 11:46 52.13055 10.81259 37993 ft 412 kts 266°
2026-05-04 11:47 52.13050 10.76585 37981 ft 414 kts 268°
2026-05-04 11:47 52.13066 10.67689 37986 ft 415 kts 266°
2026-05-04 11:48 52.13108 10.58330 38021 ft 415 kts 268°
2026-05-04 11:48 52.13167 10.48958 38003 ft 414 kts 268°
2026-05-04 11:49 52.13211 10.39651 37990 ft 413 kts 268°
2026-05-04 11:49 52.13248 10.30292 37990 ft 413 kts 268°
2026-05-04 11:50 52.13278 10.20941 37982 ft 413 kts 268°
2026-05-04 11:50 52.13300 10.11583 37983 ft 413 kts 268°
2026-05-04 11:51 52.13315 10.02241 37980 ft 413 kts 267°
2026-05-04 11:51 52.13322 9.92913 37975 ft 413 kts 267°
2026-05-04 11:52 52.13323 9.83521 37965 ft 413 kts 267°
2026-05-04 11:52 52.13315 9.74177 37979 ft 413 kts 267°
2026-05-04 11:53 52.13300 9.64823 37981 ft 413 kts 267°
2026-05-04 11:53 52.13278 9.55465 37978 ft 414 kts 267°
2026-05-04 11:55 52.13115 9.18013 37970 ft 414 kts 266°
2026-05-04 11:56 52.13055 9.08647 37976 ft 414 kts 266°
2026-05-04 11:56 52.12989 8.99287 37977 ft 413 kts 266°
2026-05-04 11:57 52.12914 8.89929 37969 ft 414 kts 266°
2026-05-04 11:57 52.12833 8.80570 37974 ft 414 kts 266°
2026-05-04 11:58 52.12744 8.71213 37974 ft 414 kts 266°
2026-05-04 11:58 52.12648 8.61873 37978 ft 414 kts 266°
2026-05-04 11:59 52.12544 8.52471 37982 ft 414 kts 266°
2026-05-04 11:59 52.12432 8.43118 37978 ft 415 kts 265°
2026-05-04 12:00 52.12314 8.33726 37981 ft 415 kts 265°
2026-05-04 12:00 52.12187 8.24358 37980 ft 415 kts 265°
2026-05-04 12:01 52.12053 8.14945 37978 ft 415 kts 265°
2026-05-04 12:02 52.11524 7.82007 37997 ft 416 kts 265°
2026-05-04 12:03 52.11356 7.72595 37994 ft 417 kts 265°
2026-05-04 12:03 52.11180 7.63149 37991 ft 417 kts 265°
2026-05-04 12:04 52.10997 7.53732 38002 ft 417 kts 265°
2026-05-04 12:04 52.10806 7.44292 37992 ft 418 kts 265°
2026-05-04 12:05 52.10609 7.34910 37989 ft 418 kts 265°
2026-05-04 12:05 52.10402 7.25456 37987 ft 418 kts 264°
2026-05-04 12:06 52.10188 7.16005 37982 ft 418 kts 264°
2026-05-04 12:06 52.09966 7.06560 37983 ft 419 kts 264°
2026-05-04 12:07 52.09737 6.97082 37984 ft 419 kts 264°
2026-05-04 12:07 52.09499 6.87604 37983 ft 420 kts 264°
2026-05-04 12:08 52.09254 6.78115 37982 ft 420 kts 264°
2026-05-04 12:08 52.09000 6.68617 37982 ft 421 kts 264°
2026-05-04 12:09 52.08739 6.59115 37985 ft 421 kts 264°
2026-05-04 12:09 52.08470 6.49599 37983 ft 422 kts 264°
2026-05-04 12:10 52.08193 6.40076 37985 ft 422 kts 264°
2026-05-04 12:10 52.07909 6.30577 37987 ft 423 kts 264°
2026-05-04 12:11 52.07615 6.20980 37989 ft 423 kts 264°
2026-05-04 12:11 52.07313 6.11423 37992 ft 424 kts 264°
2026-05-04 12:12 52.07003 6.01846 37993 ft 424 kts 263°
2026-05-04 12:12 52.06740 5.93892 37996 ft 425 kts 263°
2026-05-04 12:14 52.05402 5.55432 37992 ft 427 kts 263°
2026-05-04 12:15 52.05048 5.45795 37989 ft 428 kts 263°
2026-05-04 12:15 52.04802 5.39189 37987 ft 429 kts 263°
2026-05-04 12:16 52.04599 5.33798 37986 ft 429 kts 263°
2026-05-04 12:16 52.04276 5.24112 37982 ft 430 kts 264°
2026-05-04 12:17 52.03994 5.14437 37991 ft 431 kts 264°
2026-05-04 12:17 52.03704 5.04699 37981 ft 432 kts 264°
2026-05-04 12:18 52.03406 4.94936 37991 ft 432 kts 264°
2026-05-04 12:18 52.03101 4.85201 37989 ft 433 kts 264°
2026-05-04 12:19 52.02786 4.75430 37992 ft 433 kts 264°
2026-05-04 12:19 52.02463 4.65653 37994 ft 434 kts 264°
2026-05-04 12:20 52.02132 4.55881 37999 ft 434 kts 264°
2026-05-04 12:20 52.01792 4.46083 37991 ft 435 kts 264°
2026-05-04 12:21 52.01443 4.36282 37994 ft 435 kts 263°
2026-05-04 12:21 52.01087 4.26476 38000 ft 436 kts 263°
2026-05-04 12:22 52.00720 4.16634 38000 ft 437 kts 263°
2026-05-04 12:22 52.00346 4.06781 37994 ft 437 kts 263°
2026-05-04 12:23 51.99962 3.96930 37997 ft 438 kts 263°
2026-05-04 12:23 51.99570 3.87063 38005 ft 438 kts 263°
2026-05-04 12:24 51.99170 3.77209 38007 ft 438 kts 263°
2026-05-04 12:24 51.98761 3.67321 38014 ft 439 kts 263°
2026-05-04 12:25 51.98343 3.57439 38010 ft 439 kts 263°
2026-05-04 12:25 51.97916 3.47543 38010 ft 440 kts 263°
2026-05-04 12:26 51.97481 3.37650 38015 ft 440 kts 263°
2026-05-04 12:26 51.97041 3.27739 37880 ft 439 kts 263°
2026-05-04 12:27 51.96819 3.22835 37382 ft 433 kts 263°
2026-05-04 12:27 51.96585 3.17981 36811 ft 430 kts 261°
2026-05-04 12:27 51.96268 3.13163 36006 ft 432 kts 261°
2026-05-04 12:27 51.95957 3.08383 35341 ft 432 kts 261°
2026-05-04 12:28 51.95642 3.03494 34706 ft 430 kts 260°
2026-05-04 12:28 51.95331 2.98674 34017 ft 429 kts 260°
2026-05-04 12:28 51.95020 2.93867 33219 ft 429 kts 260°
2026-05-04 12:28 51.94708 2.89063 32419 ft 429 kts 260°
2026-05-04 12:29 51.94393 2.84255 31666 ft 429 kts 260°
2026-05-04 12:29 51.94080 2.79515 30917 ft 429 kts 260°
2026-05-04 12:29 51.93760 2.74693 30100 ft 430 kts 260°
2026-05-04 12:29 51.93439 2.69865 29134 ft 433 kts 261°
2026-05-04 12:30 51.93110 2.65013 28128 ft 435 kts 261°
2026-05-04 12:30 51.92776 2.60140 27273 ft 435 kts 261°
2026-05-04 12:30 51.92441 2.55287 26419 ft 434 kts 261°
2026-05-04 12:30 51.92103 2.50417 25500 ft 435 kts 262°
2026-05-04 12:31 51.91764 2.45549 24586 ft 430 kts 262°
2026-05-04 12:31 51.91433 2.40831 23771 ft 417 kts 262°
2026-05-04 12:31 51.91108 2.36241 22863 ft 405 kts 262°
2026-05-04 12:31 51.90832 2.31751 21996 ft 394 kts 266°
2026-05-04 12:32 51.90758 2.27329 21501 ft 376 kts 267°
2026-05-04 12:32 51.90583 2.19342 20814 ft 340 kts 266°
2026-05-04 12:32 51.90490 2.15599 20454 ft 326 kts 266°
2026-05-04 12:33 51.90398 2.12005 20103 ft 313 kts 266°
2026-05-04 12:33 51.90305 2.08458 19745 ft 312 kts 266°
2026-05-04 12:33 51.90213 2.04977 19396 ft 313 kts 266°
2026-05-04 12:33 51.90119 2.01461 19066 ft 313 kts 266°
2026-05-04 12:34 51.90024 1.97943 18726 ft 313 kts 266°
2026-05-04 12:34 51.89927 1.94425 18387 ft 313 kts 266°
2026-05-04 12:34 51.89842 1.90906 18021 ft 312 kts 269°
2026-05-04 12:34 51.90266 1.87485 17654 ft 313 kts 292°
2026-05-04 12:35 51.91247 1.84347 17375 ft 311 kts 295°
2026-05-04 12:35 51.92235 1.81250 17097 ft 310 kts 296°
2026-05-04 12:35 51.93235 1.78157 16823 ft 308 kts 296°
2026-05-04 12:35 51.94235 1.75091 16562 ft 307 kts 296°
2026-05-04 12:36 51.95232 1.72049 16293 ft 305 kts 296°
2026-05-04 12:36 51.96228 1.69015 16029 ft 304 kts 296°
2026-05-04 12:36 51.97220 1.65994 15766 ft 303 kts 296°
2026-05-04 12:36 51.98206 1.62991 15506 ft 301 kts 296°
2026-05-04 12:37 51.99190 1.59992 15245 ft 300 kts 296°
2026-05-04 12:37 52.00163 1.57018 14980 ft 299 kts 296°
2026-05-04 12:37 52.01136 1.54044 14716 ft 297 kts 296°
2026-05-04 12:37 52.02102 1.51089 14470 ft 296 kts 296°
2026-05-04 12:38 52.03064 1.48141 14214 ft 295 kts 296°
2026-05-04 12:38 52.04036 1.45164 13952 ft 293 kts 296°
2026-05-04 12:38 52.04971 1.42290 13689 ft 292 kts 296°
2026-05-04 12:38 52.05915 1.39388 13409 ft 291 kts 296°
2026-05-04 12:39 52.06859 1.36482 13148 ft 289 kts 296°
2026-05-04 12:39 52.07796 1.33595 12897 ft 288 kts 296°
2026-05-04 12:39 52.08728 1.30720 12642 ft 287 kts 296°
2026-05-04 12:39 52.09652 1.27865 12393 ft 286 kts 296°
2026-05-04 12:40 52.10580 1.24999 12139 ft 285 kts 296°
2026-05-04 12:40 52.11370 1.22091 12026 ft 281 kts 281°
2026-05-04 12:40 52.11386 1.18942 12018 ft 279 kts 258°
2026-05-04 12:40 52.10931 1.15856 12021 ft 281 kts 256°
2026-05-04 12:41 52.10455 1.12767 11917 ft 283 kts 255°
2026-05-04 12:41 52.09961 1.09654 11456 ft 286 kts 255°
2026-05-04 12:41 52.09455 1.06538 11068 ft 285 kts 255°
2026-05-04 12:41 52.08948 1.03452 10810 ft 278 kts 255°
2026-05-04 12:42 52.08452 1.00455 10624 ft 273 kts 255°
2026-05-04 12:42 52.07954 0.97469 10423 ft 274 kts 255°
2026-05-04 12:42 52.07454 0.94477 10236 ft 274 kts 255°
2026-05-04 12:42 52.06955 0.91502 10045 ft 272 kts 255°
2026-05-04 12:43 52.06459 0.88553 9855 ft 270 kts 255°
2026-05-04 12:43 52.05991 0.85771 9667 ft 268 kts 255°
2026-05-04 12:43 52.05500 0.82856 9481 ft 268 kts 255°
2026-05-04 12:43 52.05006 0.79936 9297 ft 267 kts 254°
2026-05-04 12:44 52.04515 0.77027 9124 ft 267 kts 254°
2026-05-04 12:44 52.04022 0.74121 8939 ft 267 kts 255°
2026-05-04 12:44 52.03531 0.71227 8756 ft 266 kts 254°
2026-05-04 12:44 52.03049 0.68389 8589 ft 253 kts 254°
2026-05-04 12:45 52.02634 0.65697 8439 ft 242 kts 262°
2026-05-04 12:45 52.02551 0.62962 8225 ft 245 kts 270°
2026-05-04 12:45 52.02592 0.60182 7854 ft 247 kts 271°
2026-05-04 12:45 52.02639 0.57390 7530 ft 246 kts 271°
2026-05-04 12:46 52.02687 0.54638 7326 ft 241 kts 271°
2026-05-04 12:46 52.02733 0.51948 7128 ft 239 kts 271°
2026-05-04 12:46 52.02775 0.49230 6937 ft 240 kts 271°
2026-05-04 12:46 52.02816 0.46509 6747 ft 241 kts 271°
2026-05-04 12:47 52.02825 0.43785 6548 ft 241 kts 263°
2026-05-04 12:47 52.02310 0.41231 6342 ft 240 kts 243°
2026-05-04 12:47 52.01528 0.38859 6143 ft 240 kts 241°
2026-05-04 12:47 52.00720 0.36476 5990 ft 239 kts 241°
2026-05-04 12:48 51.99920 0.34120 5987 ft 239 kts 241°
2026-05-04 12:48 51.99116 0.31750 5992 ft 239 kts 241°
2026-05-04 12:48 51.98314 0.29384 5990 ft 239 kts 241°
2026-05-04 12:48 51.97511 0.27017 5992 ft 239 kts 241°
2026-05-04 12:49 51.96710 0.24655 5992 ft 239 kts 241°
2026-05-04 12:49 51.95906 0.22290 5993 ft 239 kts 241°
2026-05-04 12:49 51.95100 0.19921 5807 ft 240 kts 241°
2026-05-04 12:49 51.94297 0.17559 5599 ft 239 kts 241°
2026-05-04 12:50 51.93496 0.15208 5381 ft 238 kts 241°
2026-05-04 12:50 51.92553 0.13030 5160 ft 236 kts 226°
2026-05-04 12:50 51.91352 0.11216 4965 ft 236 kts 221°
2026-05-04 12:50 51.90116 0.09469 4739 ft 235 kts 221°
2026-05-04 12:51 51.88884 0.07734 4505 ft 235 kts 221°
2026-05-04 12:51 51.87663 0.06016 4188 ft 236 kts 221°
2026-05-04 12:51 51.86417 0.04266 3807 ft 237 kts 221°
2026-05-04 12:51 51.85186 0.02539 3446 ft 232 kts 221°
2026-05-04 12:52 51.83976 0.00843 3075 ft 228 kts 221°
2026-05-04 12:52 51.82696 -0.00668 2850 ft 229 kts 203°
2026-05-04 12:52 51.81171 -0.01361 2754 ft 228 kts 191°
2026-05-04 12:52 51.79626 -0.01848 2639 ft 225 kts 191°
2026-05-04 12:53 51.78113 -0.02318 2534 ft 214 kts 191°
2026-05-04 12:53 51.76647 -0.02580 2485 ft 212 kts 173°
2026-05-04 12:53 51.75339 -0.01653 2469 ft 209 kts 137°
2026-05-04 12:53 51.74610 0.00286 2481 ft 206 kts 102°
2026-05-04 12:54 51.74714 0.02559 2502 ft 203 kts 66°
2026-05-04 12:54 51.75543 0.04207 2486 ft 182 kts 37°
2026-05-04 12:54 51.76509 0.05555 2550 ft 185 kts 42°
2026-05-04 12:54 51.77452 0.06973 2524 ft 185 kts 42°
2026-05-04 12:55 51.78377 0.08359 2511 ft 173 kts 42°
2026-05-04 12:55 51.79239 0.09647 2499 ft 166 kts 42°
2026-05-04 12:55 51.79808 0.10495 2460 ft 165 kts 42°
2026-05-04 12:55 51.80860 0.12065 2240 ft 147 kts 42°
2026-05-04 12:56 51.81361 0.12814 2115 ft 143 kts 42°
2026-05-04 12:56 51.82087 0.13898 1919 ft 142 kts 41°
2026-05-04 12:56 51.82813 0.14983 1746 ft 142 kts 42°
2026-05-04 12:56 51.83535 0.16062 1530 ft 141 kts 42°
2026-05-04 12:57 51.84257 0.17142 1335 ft 141 kts 41°
2026-05-04 12:57 51.84972 0.18211 1131 ft 141 kts 41°
2026-05-04 12:57 51.85682 0.19269 951 ft 140 kts 40°
2026-05-04 12:57 51.86410 0.20335 753 ft 139 kts 41°
2026-05-04 12:58 51.87113 0.21408 516 ft 140 kts 40°
2026-05-04 12:58 51.87819 0.22460 368 ft 135 kts 41°
2026-05-04 12:58 51.88410 0.23343 348 ft 87 kts 43°
2026-05-04 12:58 51.88735 0.23836 339 ft 46 kts 46°
2026-05-04 12:59 51.88882 0.24247 346 ft 35 kts 72°
2026-05-04 12:59 51.88906 0.24374 355 ft 5 kts 74°
2026-05-04 12:59 51.88913 0.24414 350 ft 3 kts 73°
2026-05-04 12:59 51.88917 0.24441 355 ft 2 kts 84°
2026-05-04 13:00 51.88917 0.24462 356 ft 4 kts 96°
2026-05-04 13:00 51.88906 0.24554 355 ft 13 kts 75°
2026-05-04 13:00 51.88991 0.24701 351 ft 24 kts 44°
2026-05-04 13:00 51.89127 0.24906 354 ft 28 kts 43°
2026-05-04 13:01 51.89246 0.25128 359 ft 26 kts 59°
2026-05-04 13:01 51.89371 0.25340 353 ft 27 kts 43°
2026-05-04 13:01 51.89503 0.25540 355 ft 27 kts 43°
2026-05-04 13:01 51.89610 0.25723 352 ft 10 kts 79°
2026-05-04 13:02 51.89579 0.25814 356 ft 10 kts 142°
2026-05-04 13:02 51.89518 0.25881 357 ft 11 kts 136°
2026-05-04 13:02 51.89459 0.25985 351 ft 14 kts 133°
2026-05-04 13:02 51.89400 0.26084 351 ft 9 kts 143°
2026-05-04 13:03 51.89372 0.26078 351 ft 3 kts 219°
2026-05-04 13:03 51.89354 0.26053 355 ft 2 kts 221°
2026-05-04 13:03 51.89350 0.26046 353 ft 0 kts 224°
2026-05-04 13:04 51.89346 0.26040 351 ft 1 kts 224°